Time,TemperatureF,DewpointF,PressureIn,WindDirection,WindDirectionDegrees,WindSpeedMPH,WindSpeedGustMPH,Humidity,HourlyPrecipIn,Conditions,Clouds,dailyrainin,SoftwareType,DateUTC
2013-03-14 00:09:00,56.7,48.4,30.11,SE,139,0.0,0.0,74,0.00,,,-99.99,Weather View 32 v60,2013-03-14 07:09:00,
2013-03-14 00:19:00,56.3,48.8,30.11,SE,139,0.0,0.0,76,0.00,,,-99.99,Weather View 32 v60,2013-03-14 07:19:00,
2013-03-14 00:29:00,56.1,49.0,30.11,SE,139,0.0,0.0,77,0.00,,,-99.99,Weather View 32 v60,2013-03-14 07:29:00,
2013-03-14 00:39:00,55.9,49.2,30.11,SE,139,0.0,0.0,78,0.00,,,-99.99,Weather View 32 v60,2013-03-14 07:39:00,
2013-03-14 00:49:00,55.6,48.8,30.11,SE,139,0.0,0.0,78,0.00,,,-99.99,Weather View 32 v60,2013-03-14 07:49:00,
2013-03-14 00:57:00,55.6,48.8,30.11,SE,139,0.0,0.0,78,0.00,,,-99.99,Weather View 32 v60,2013-03-14 07:57:00,
2013-03-14 01:09:00,54.9,48.1,30.11,SE,139,0.0,0.0,78,0.00,,,-99.99,Weather View 32 v60,2013-03-14 08:09:00,
2013-03-14 01:19:00,54.7,48.3,30.11,SE,139,0.0,0.0,79,0.00,,,-99.99,Weather View 32 v60,2013-03-14 08:19:00,
2013-03-14 01:29:00,54.5,48.4,30.11,SE,139,0.0,0.0,80,0.00,,,-99.99,Weather View 32 v60,2013-03-14 08:29:00,
2013-03-14 01:39:00,54.3,48.6,30.11,SE,139,0.0,0.0,81,0.00,,,-99.99,Weather View 32 v60,2013-03-14 08:39:00,
2013-03-14 01:49:00,54.1,48.4,30.11,SE,139,0.0,0.0,81,0.00,,,-99.99,Weather View 32 v60,2013-03-14 08:49:00,
2013-03-14 01:58:00,54.1,48.4,30.11,SE,139,0.0,0.0,81,0.00,,,-99.99,Weather View 32 v60,2013-03-14 08:58:00,
2013-03-14 02:09:00,53.4,48.1,30.11,SE,139,0.0,0.0,82,0.00,,,-99.99,Weather View 32 v60,2013-03-14 09:09:00,
2013-03-14 02:19:00,53.2,48.2,30.11,SE,139,0.0,0.0,83,0.00,,,-99.99,Weather View 32 v60,2013-03-14 09:19:00,
2013-03-14 02:29:00,53.1,48.0,30.11,SE,139,0.0,0.0,83,0.00,,,-99.99,Weather View 32 v60,2013-03-14 09:29:00,
2013-03-14 02:39:00,52.7,48.0,30.11,SE,139,0.0,0.0,84,0.00,,,-99.99,Weather View 32 v60,2013-03-14 09:39:00,
2013-03-14 02:49:00,52.5,47.8,30.11,SE,139,0.0,0.0,84,0.00,,,-99.99,Weather View 32 v60,2013-03-14 09:49:00,
2013-03-14 02:58:00,52.5,47.8,30.11,SE,139,0.0,0.0,84,0.00,,,-99.99,Weather View 32 v60,2013-03-14 09:58:00,
2013-03-14 03:09:00,52.0,47.3,30.11,SE,139,0.0,0.0,84,0.00,,,-99.99,Weather View 32 v60,2013-03-14 10:09:00,
2013-03-14 03:19:00,51.8,47.4,30.11,SE,139,0.0,0.0,85,0.00,,,-99.99,Weather View 32 v60,2013-03-14 10:19:00,
2013-03-14 03:29:00,51.6,47.2,30.11,SE,139,0.0,0.0,85,0.00,,,-99.99,Weather View 32 v60,2013-03-14 10:29:00,
2013-03-14 03:39:00,51.4,47.1,30.11,SE,139,0.0,0.0,85,0.00,,,-99.99,Weather View 32 v60,2013-03-14 10:39:00,
2013-03-14 03:50:00,51.3,47.2,30.11,SE,139,0.0,0.0,86,0.00,,,-99.99,Weather View 32 v60,2013-03-14 10:50:00,
2013-03-14 03:59:00,51.3,47.2,30.11,SE,139,0.0,0.0,86,0.00,,,-99.99,Weather View 32 v60,2013-03-14 10:59:00,
2013-03-14 04:09:00,50.9,47.2,30.11,SE,139,0.0,0.0,87,0.00,,,-99.99,Weather View 32 v60,2013-03-14 11:09:00,
2013-03-14 04:19:00,50.5,46.8,30.11,SE,139,0.0,0.0,87,0.00,,,-99.99,Weather View 32 v60,2013-03-14 11:19:00,
2013-03-14 04:29:00,50.4,46.6,30.11,SE,139,0.0,0.0,87,0.00,,,-99.99,Weather View 32 v60,2013-03-14 11:29:00,
2013-03-14 04:39:00,50.2,46.8,30.11,SE,139,0.0,0.0,88,0.00,,,-99.99,Weather View 32 v60,2013-03-14 11:39:00,
2013-03-14 04:49:00,50.0,46.6,30.11,SE,139,0.0,0.0,88,0.00,,,-99.99,Weather View 32 v60,2013-03-14 11:49:00,
2013-03-14 05:00:00,50.0,46.6,30.11,SE,139,0.0,0.0,88,0.00,,,-99.99,Weather View 32 v60,2013-03-14 12:00:00,
2013-03-14 05:09:00,49.8,46.7,30.11,SE,139,0.0,0.0,89,0.00,,,-99.99,Weather View 32 v60,2013-03-14 12:09:00,
2013-03-14 05:19:00,49.6,46.5,30.11,SE,139,0.0,0.0,89,0.00,,,-99.99,Weather View 32 v60,2013-03-14 12:19:00,
2013-03-14 05:29:00,49.6,46.5,30.11,SE,139,0.0,0.0,89,0.00,,,-99.99,Weather View 32 v60,2013-03-14 12:29:00,
2013-03-14 05:39:00,49.6,46.8,30.11,SE,139,0.0,0.0,90,0.00,,,-99.99,Weather View 32 v60,2013-03-14 12:39:00,
2013-03-14 05:49:00,49.3,46.2,30.11,SE,139,0.0,0.0,89,0.00,,,-99.99,Weather View 32 v60,2013-03-14 12:49:00,
2013-03-14 05:59:00,49.1,46.3,30.11,SE,139,0.0,0.0,90,0.00,,,-99.99,Weather View 32 v60,2013-03-14 12:59:00,
2013-03-14 06:09:00,48.9,46.1,30.11,SE,139,0.0,0.0,90,0.00,,,-99.99,Weather View 32 v60,2013-03-14 13:09:00,
2013-03-14 06:19:00,48.7,45.9,30.11,SE,139,0.0,0.0,90,0.00,,,-99.99,Weather View 32 v60,2013-03-14 13:19:00,
2013-03-14 06:29:00,48.6,45.8,30.11,SE,139,0.0,0.0,90,0.00,,,-99.99,Weather View 32 v60,2013-03-14 13:29:00,
2013-03-14 06:39:00,48.6,45.8,30.11,SE,139,0.0,0.0,90,0.00,,,-99.99,Weather View 32 v60,2013-03-14 13:39:00,
2013-03-14 06:49:00,48.4,45.9,30.11,SE,139,0.0,0.0,91,0.00,,,-99.99,Weather View 32 v60,2013-03-14 13:49:00,
2013-03-14 06:59:00,48.2,45.7,30.11,SE,139,0.0,0.0,91,0.00,,,-99.99,Weather View 32 v60,2013-03-14 13:59:00,
2013-03-14 07:09:00,48.2,45.7,30.11,SE,139,0.0,0.0,91,0.00,,,-99.99,Weather View 32 v60,2013-03-14 14:09:00,
2013-03-14 07:19:00,48.0,45.8,30.11,SE,139,0.0,0.0,92,0.00,,,-99.99,Weather View 32 v60,2013-03-14 14:19:00,
2013-03-14 07:29:00,47.8,45.6,30.11,SE,139,0.0,0.0,92,0.00,,,-99.99,Weather View 32 v60,2013-03-14 14:29:00,
2013-03-14 07:39:00,48.0,45.8,30.11,SE,139,0.0,0.0,92,0.00,,,-99.99,Weather View 32 v60,2013-03-14 14:39:00,
2013-03-14 07:49:00,48.2,46.3,30.11,SE,139,0.0,0.0,93,0.00,,,-99.99,Weather View 32 v60,2013-03-14 14:49:00,
2013-03-14 07:59:00,48.6,46.6,30.11,SE,139,0.0,0.0,93,0.00,,,-99.99,Weather View 32 v60,2013-03-14 14:59:00,
2013-03-14 08:09:00,48.9,47.0,30.11,SE,139,0.0,0.0,93,0.00,,,-99.99,Weather View 32 v60,2013-03-14 15:09:00,
2013-03-14 08:19:00,50.0,48.1,30.14,SE,139,0.0,0.0,93,0.00,,,-99.99,Weather View 32 v60,2013-03-14 15:19:00,
2013-03-14 08:29:00,51.3,49.6,30.14,SE,139,0.0,0.0,94,0.00,,,-99.99,Weather View 32 v60,2013-03-14 15:29:00,
2013-03-14 08:39:00,52.5,50.5,30.14,SE,139,0.0,0.0,93,0.00,,,-99.99,Weather View 32 v60,2013-03-14 15:39:00,
2013-03-14 08:49:00,54.1,52.2,30.14,SE,139,0.0,0.0,93,0.00,,,-99.99,Weather View 32 v60,2013-03-14 15:49:00,
2013-03-14 08:59:00,55.4,52.5,30.14,NE,47,0.0,0.0,90,0.00,,,-99.99,Weather View 32 v60,2013-03-14 15:59:00,
2013-03-14 09:09:00,56.5,51.7,30.14,NE,40,0.0,0.0,84,0.00,,,-99.99,Weather View 32 v60,2013-03-14 16:09:00,
2013-03-14 09:19:00,56.8,52.0,30.17,NE,40,0.0,0.0,84,0.00,,,-99.99,Weather View 32 v60,2013-03-14 16:19:00,
2013-03-14 09:29:00,57.7,52.3,30.17,ESE,121,0.0,0.0,82,0.00,,,-99.99,Weather View 32 v60,2013-03-14 16:29:00,
2013-03-14 09:39:00,59.2,51.6,30.17,SE,141,0.0,0.0,76,0.00,,,-99.99,Weather View 32 v60,2013-03-14 16:39:00,
2013-03-14 09:49:00,61.0,50.3,30.17,East,85,0.0,0.0,68,0.00,,,-99.99,Weather View 32 v60,2013-03-14 16:49:00,
2013-03-14 09:59:00,61.9,49.5,30.17,SW,221,0.0,0.0,64,0.00,,,-99.99,Weather View 32 v60,2013-03-14 16:59:00,
2013-03-14 10:09:00,63.0,48.8,30.17,ENE,66,0.0,0.0,60,0.00,,,-99.99,Weather View 32 v60,2013-03-14 17:09:00,
2013-03-14 10:19:00,63.9,48.8,30.17,NNE,33,0.0,0.0,58,0.00,,,-99.99,Weather View 32 v60,2013-03-14 17:19:00,
2013-03-14 10:29:00,64.8,50.1,30.17,NW,317,0.0,0.0,59,0.00,,,-99.99,Weather View 32 v60,2013-03-14 17:29:00,
2013-03-14 10:39:00,66.0,50.8,30.17,SW,232,0.0,0.0,58,0.00,,,-99.99,Weather View 32 v60,2013-03-14 17:39:00,
2013-03-14 10:49:00,67.3,49.5,30.17,WSW,257,0.0,0.0,53,0.00,,,-99.99,Weather View 32 v60,2013-03-14 17:49:00,
2013-03-14 10:59:00,68.0,49.1,30.17,SW,218,0.0,0.0,51,0.00,,,-99.99,Weather View 32 v60,2013-03-14 17:59:00,
2013-03-14 11:09:00,69.1,49.6,30.17,SE,134,0.0,0.0,50,0.00,,,-99.99,Weather View 32 v60,2013-03-14 18:09:00,
2013-03-14 11:19:00,70.2,48.9,30.17,SE,134,0.0,0.0,47,0.00,,,-99.99,Weather View 32 v60,2013-03-14 18:19:00,
2013-03-14 11:29:00,71.1,49.2,30.17,South,173,0.0,0.0,46,0.00,,,-99.99,Weather View 32 v60,2013-03-14 18:29:00,
2013-03-14 11:39:00,72.0,49.4,30.17,South,169,0.0,0.0,45,0.00,,,-99.99,Weather View 32 v60,2013-03-14 18:39:00,
2013-03-14 11:49:00,72.7,48.8,30.17,SSW,199,0.0,0.0,43,0.00,,,-99.99,Weather View 32 v60,2013-03-14 18:49:00,
2013-03-14 11:59:00,74.1,49.5,30.17,SSE,152,0.0,0.0,42,0.00,,,-99.99,Weather View 32 v60,2013-03-14 18:59:00,
2013-03-14 12:09:00,74.5,49.2,30.17,ESE,116,0.0,0.0,41,0.00,,,-99.99,Weather View 32 v60,2013-03-14 19:09:00,
2013-03-14 12:19:00,76.1,49.3,30.14,West,275,0.0,0.0,39,0.00,,,-99.99,Weather View 32 v60,2013-03-14 19:19:00,
2013-03-14 12:30:00,76.1,48.6,30.14,WNW,294,0.0,0.0,38,0.00,,,-99.99,Weather View 32 v60,2013-03-14 19:30:00,
2013-03-14 12:39:00,75.7,49.6,30.14,NW,304,0.0,0.0,40,0.00,,,-99.99,Weather View 32 v60,2013-03-14 19:39:00,
2013-03-14 12:49:00,74.7,50.0,30.17,West,270,0.0,0.0,42,0.00,,,-99.99,Weather View 32 v60,2013-03-14 19:49:00,
2013-03-14 12:59:00,74.1,49.5,30.17,WNW,291,4.0,7.0,42,0.00,,,-99.99,Weather View 32 v60,2013-03-14 19:59:00,
2013-03-14 13:09:00,74.8,50.1,30.14,WSW,252,0.0,7.0,42,0.00,,,-99.99,Weather View 32 v60,2013-03-14 20:09:00,
2013-03-14 13:19:00,75.6,50.1,30.14,SSW,202,0.0,7.0,41,0.00,,,-99.99,Weather View 32 v60,2013-03-14 20:19:00,
2013-03-14 13:29:00,77.0,49.4,30.14,West,276,0.0,7.0,38,0.00,,,-99.99,Weather View 32 v60,2013-03-14 20:29:00,
2013-03-14 13:40:00,77.4,49.7,30.14,WNW,293,0.0,7.0,38,0.00,,,-99.99,Weather View 32 v60,2013-03-14 20:40:00,
2013-03-14 13:49:00,77.7,50.0,30.14,West,276,0.0,7.0,38,0.00,,,-99.99,Weather View 32 v60,2013-03-14 20:49:00,
2013-03-14 13:59:00,77.4,49.0,30.14,WNW,298,0.0,6.0,37,0.00,,,-99.99,Weather View 32 v60,2013-03-14 20:59:00,
2013-03-14 14:10:00,77.7,48.6,30.14,NNW,347,0.0,6.0,36,0.00,,,-99.99,Weather View 32 v60,2013-03-14 21:10:00,
2013-03-14 14:19:00,79.9,48.1,30.14,WNW,299,0.0,4.0,33,0.00,,,-99.99,Weather View 32 v60,2013-03-14 21:19:00,
2013-03-14 14:29:00,81.0,48.2,30.14,West,278,6.0,6.0,32,0.00,,,-99.99,Weather View 32 v60,2013-03-14 21:29:00,
2013-03-14 14:39:00,80.2,48.4,30.14,West,272,0.0,7.0,33,0.00,,,-99.99,Weather View 32 v60,2013-03-14 21:39:00,
2013-03-14 14:49:00,80.6,47.9,30.14,WNW,290,0.0,7.0,32,0.00,,,-99.99,Weather View 32 v60,2013-03-14 21:49:00,
2013-03-14 15:00:00,79.5,47.0,30.14,WNW,299,0.0,7.0,32,0.00,,,-99.99,Weather View 32 v60,2013-03-14 22:00:00,
2013-03-14 15:05:00,79.5,47.0,30.14,WNW,299,0.0,7.0,32,0.00,,,-99.99,Weather View 32 v60,2013-03-14 22:05:00,
2013-03-14 15:20:00,80.2,47.6,30.11,West,272,0.0,7.0,32,0.00,,,-99.99,Weather View 32 v60,2013-03-14 22:20:00,
2013-03-14 15:29:00,79.7,46.3,30.11,West,265,0.0,7.0,31,0.00,,,-99.99,Weather View 32 v60,2013-03-14 22:29:00,
2013-03-14 15:39:00,78.6,46.2,30.14,West,281,0.0,8.0,32,0.00,,,-99.99,Weather View 32 v60,2013-03-14 22:39:00,
2013-03-14 15:49:00,78.1,46.5,30.14,WSW,247,0.0,8.0,33,0.00,,,-99.99,Weather View 32 v60,2013-03-14 22:49:00,
2013-03-14 15:59:00,78.4,45.2,30.14,NNW,328,0.0,11.0,31,0.00,,,-99.99,Weather View 32 v60,2013-03-14 22:59:00,
2013-03-14 16:05:00,78.4,45.2,30.14,NNW,328,0.0,11.0,31,0.00,,,-99.99,Weather View 32 v60,2013-03-14 23:05:00,
2013-03-14 16:20:00,77.5,44.4,30.11,SSW,202,7.0,11.0,31,0.00,,,-99.99,Weather View 32 v60,2013-03-14 23:20:00,
2013-03-14 16:29:00,77.5,44.4,30.11,West,272,4.0,11.0,31,0.00,,,-99.99,Weather View 32 v60,2013-03-14 23:29:00,
2013-03-14 16:39:00,76.3,42.5,30.14,West,268,0.0,11.0,30,0.00,,,-99.99,Weather View 32 v60,2013-03-14 23:39:00,
2013-03-14 16:49:00,75.9,42.2,30.11,West,271,4.0,11.0,30,0.00,,,-99.99,Weather View 32 v60,2013-03-14 23:49:00,
2013-03-14 16:59:00,74.3,40.8,30.11,SSW,209,0.0,11.0,30,0.00,,,-99.99,Weather View 32 v60,2013-03-14 23:59:00,
2013-03-14 17:09:00,72.5,40.1,30.11,West,265,0.0,11.0,31,0.00,,,-99.99,Weather View 32 v60,2013-03-15 00:09:00,
2013-03-14 17:19:00,71.8,40.3,30.14,WSW,240,0.0,11.0,32,0.00,,,-99.99,Weather View 32 v60,2013-03-15 00:19:00,
2013-03-14 17:29:00,71.4,39.9,30.14,SW,234,4.0,11.0,32,0.00,,,-99.99,Weather View 32 v60,2013-03-15 00:29:00,
2013-03-14 17:39:00,70.7,39.3,30.14,WSW,245,0.0,11.0,32,0.00,,,-99.99,Weather View 32 v60,2013-03-15 00:39:00,
2013-03-14 17:49:00,69.8,38.5,30.11,SW,216,0.0,11.0,32,0.00,,,-99.99,Weather View 32 v60,2013-03-15 00:49:00,
2013-03-14 17:59:00,69.3,38.1,30.11,WSW,250,0.0,11.0,32,0.00,,,-99.99,Weather View 32 v60,2013-03-15 00:59:00,
2013-03-14 18:06:00,69.3,38.1,30.11,WSW,250,0.0,11.0,32,0.00,,,-99.99,Weather View 32 v60,2013-03-15 01:06:00,
2013-03-14 18:19:00,68.4,37.3,30.11,SSW,207,0.0,9.0,32,0.00,,,-99.99,Weather View 32 v60,2013-03-15 01:19:00,
2013-03-14 18:29:00,67.8,37.6,30.11,West,261,0.0,8.0,33,0.00,,,-99.99,Weather View 32 v60,2013-03-15 01:29:00,
2013-03-14 18:39:00,67.3,37.1,30.11,WSW,257,0.0,8.0,33,0.00,,,-99.99,Weather View 32 v60,2013-03-15 01:39:00,
2013-03-14 18:49:00,66.9,36.8,30.11,NW,304,0.0,8.0,33,0.00,,,-99.99,Weather View 32 v60,2013-03-15 01:49:00,
2013-03-14 18:59:00,66.4,37.1,30.11,SSE,149,0.0,8.0,34,0.00,,,-99.99,Weather View 32 v60,2013-03-15 01:59:00,
2013-03-14 19:07:00,66.4,37.1,30.11,SSE,149,0.0,8.0,34,0.00,,,-99.99,Weather View 32 v60,2013-03-15 02:07:00,
2013-03-14 19:19:00,65.1,44.3,30.11,SSW,199,0.0,0.0,47,0.00,,,-99.99,Weather View 32 v60,2013-03-15 02:19:00,
2013-03-14 19:29:00,64.4,44.8,30.11,SSW,197,0.0,0.0,49,0.00,,,-99.99,Weather View 32 v60,2013-03-15 02:29:00,
2013-03-14 19:39:00,63.9,44.3,30.11,SSE,149,0.0,0.0,49,0.00,,,-99.99,Weather View 32 v60,2013-03-15 02:39:00,
2013-03-14 19:49:00,63.3,44.3,30.11,SE,135,0.0,0.0,50,0.00,,,-99.99,Weather View 32 v60,2013-03-15 02:49:00,
2013-03-14 19:59:00,63.0,44.0,30.11,SSE,150,0.0,0.0,50,0.00,,,-99.99,Weather View 32 v60,2013-03-15 02:59:00,
2013-03-14 20:07:00,63.0,44.0,30.11,SSE,150,0.0,0.0,50,0.00,,,-99.99,Weather View 32 v60,2013-03-15 03:07:00,
2013-03-14 20:19:00,62.1,43.2,30.11,SSW,210,0.0,0.0,50,0.00,,,-99.99,Weather View 32 v60,2013-03-15 03:19:00,
2013-03-14 20:29:00,61.9,42.5,30.11,NNW,346,0.0,0.0,49,0.00,,,-99.99,Weather View 32 v60,2013-03-15 03:29:00,
2013-03-14 20:39:00,61.3,42.5,30.11,West,266,0.0,0.0,50,0.00,,,-99.99,Weather View 32 v60,2013-03-15 03:39:00,
2013-03-14 20:49:00,60.8,42.5,30.11,SE,132,0.0,0.0,51,0.00,,,-99.99,Weather View 32 v60,2013-03-15 03:49:00,
2013-03-14 20:59:00,60.6,42.9,30.11,SW,229,0.0,0.0,52,0.00,,,-99.99,Weather View 32 v60,2013-03-15 03:59:00,
2013-03-14 21:08:00,60.6,42.9,30.11,SW,229,0.0,0.0,52,0.00,,,-99.99,Weather View 32 v60,2013-03-15 04:08:00,
2013-03-14 21:19:00,59.9,42.7,30.14,WSW,243,0.0,0.0,53,0.00,,,-99.99,Weather View 32 v60,2013-03-15 04:19:00,
2013-03-14 21:29:00,59.2,43.0,30.14,SSE,153,0.0,0.0,55,0.00,,,-99.99,Weather View 32 v60,2013-03-15 04:29:00,
2013-03-14 21:39:00,58.8,42.2,30.14,SSW,205,0.0,0.0,54,0.00,,,-99.99,Weather View 32 v60,2013-03-15 04:39:00,
2013-03-14 21:49:00,58.1,42.5,30.14,WNW,295,0.0,0.0,56,0.00,,,-99.99,Weather View 32 v60,2013-03-15 04:49:00,
2013-03-14 21:59:00,57.4,42.7,30.14,NW,307,0.0,0.0,58,0.00,,,-99.99,Weather View 32 v60,2013-03-15 04:59:00,
2013-03-14 22:08:00,57.4,42.7,30.14,NW,307,0.0,0.0,58,0.00,,,-99.99,Weather View 32 v60,2013-03-15 05:08:00,
2013-03-14 22:19:00,56.7,42.9,30.14,WSW,253,0.0,0.0,60,0.00,,,-99.99,Weather View 32 v60,2013-03-15 05:19:00,
2013-03-14 22:29:00,56.5,43.6,30.14,NNW,346,0.0,5.0,62,0.00,,,-99.99,Weather View 32 v60,2013-03-15 05:29:00,
2013-03-14 22:39:00,56.3,43.8,30.14,NNW,336,0.0,5.0,63,0.00,,,-99.99,Weather View 32 v60,2013-03-15 05:39:00,
2013-03-14 22:49:00,55.9,45.5,30.14,NE,49,0.0,5.0,68,0.00,,,-99.99,Weather View 32 v60,2013-03-15 05:49:00,
2013-03-14 22:59:00,55.4,45.4,30.14,East,83,0.0,5.0,69,0.00,,,-99.99,Weather View 32 v60,2013-03-15 05:59:00,
2013-03-14 23:09:00,55.4,45.4,30.14,East,83,0.0,5.0,69,0.00,,,-99.99,Weather View 32 v60,2013-03-15 06:09:00,
2013-03-14 23:19:00,54.3,45.1,30.14,East,83,0.0,5.0,71,0.00,,,-99.99,Weather View 32 v60,2013-03-15 06:19:00,
2013-03-14 23:29:00,53.8,44.9,30.14,East,83,0.0,0.0,72,0.00,,,-99.99,Weather View 32 v60,2013-03-15 06:29:00,
2013-03-14 23:39:00,53.4,44.6,30.14,East,83,0.0,0.0,72,0.00,,,-99.99,Weather View 32 v60,2013-03-15 06:39:00,
2013-03-14 23:49:00,53.1,44.6,30.14,East,83,0.0,0.0,73,0.00,,,-99.99,Weather View 32 v60,2013-03-15 06:49:00,
2013-03-14 23:59:00,52.7,44.6,30.14,East,92,0.0,0.0,74,0.00,,,-99.99,Weather View 32 v60,2013-03-15 06:59:00,